DW9636 Weather Reports


Display with metric or nautical units.
time (UTC)temp
F
wind
direction
speed
MPH
gust
MPH
rain 1hr
in
rain 24hr
in
rain mn
in
humidity
%
barometer
mb
20260906053006 47 281 0.0 0.0 0.00 0.00 0.02 91 1013.2
20260906051505 47 281 0.0 0.0 0.00 0.00 0.02 91 1013.2
20260906050005 47 281 0.0 0.0 0.00 0.00 0.02 91 1013.4
20260906044507 47 281 0.0 0.0 0.00 0.00 0.02 91 1013.9
20260906043015 47 281 0.0 0.0 0.00 0.00 0.02 90 1014.0
20260906041504 47 281 0.0 0.0 0.00 0.00 0.02 89 1014.0
20260906040004 48 281 0.0 0.0 0.00 0.00 0.02 89 1013.9
20260906034502 48 281 0.0 0.0 0.00 0.00 0.02 88 1013.5
20260906033002 49 281 0.0 0.0 0.00 0.00 0.02 88 1013.2
20260906031501 50 281 0.0 0.0 0.00 0.00 0.02 86 1013.3
20260906030002 51 281 0.0 0.0 0.00 0.00 0.01 83 1013.4
20260906024601 54 281 0.0 0.0 0.00 0.00 0.00 74 1013.6
20260906023107 56 355 0.0 0.0 0.00 0.00 0.00 67 1013.5
20260906021559 57 355 0.0 0.0 0.00 0.00 0.00 66 1012.9
20260906014606 58 351 0.0 0.0 0.00 0.00 0.00 61 1012.8
20260906013058 59 350 0.0 0.0 0.00 0.00 0.00 59 1012.8
20260906011605 60 338 0.0 0.0 0.00 0.00 0.00 55 1012.8
20260906010057 62 342 0.0 0.0 0.00 0.00 0.00 51 1012.8
20260906004557 62 306 0.0 0.0 0.00 0.00 0.00 50 1012.6
20260906003056 63 325 0.0 0.0 0.00 0.00 0.00 47 1012.5
20260906001555 65 313 0.0 0.0 0.00 0.00 0.00 45 1012.6
20260906000054 65 198 0.0 0.0 0.00 0.00 0.00 33 1012.3
20260905234553 66 198 0.0 0.0 0.00 0.00 0.00 33 1012.2
20260905233052 66 158 0.0 0.0 0.00 0.00 0.00 32 1012.3
20260905231549 66 231 0.0 0.0 0.00 0.00 0.00 32 1012.5
20260905224530 66 171 0.0 0.0 0.00 0.00 0.00 33 1012.7
20260905223021 64 165 0.0 0.0 0.00 0.00 0.00 36 1013.2
20260905221621 66 180 0.0 0.0 0.00 0.00 0.00 35 1013.2
20260905220017 65 186 0.0 0.0 0.00 0.00 0.00 35 1013.3
20260905214514 63 218 0.0 0.0 0.00 0.00 0.00 39 1013.4
20260905213013 63 218 0.0 0.0 0.00 0.00 0.00 39 1013.5
20260905211512 64 227 1.0 0.0 0.00 0.00 0.00 40 1013.7
20260905210009 62 209 0.0 0.0 0.00 0.00 0.00 45 1013.8
20260905204510 63 194 0.0 0.0 0.00 0.00 0.00 45 1014.0
20260905203005 63 171 1.0 0.0 0.00 0.00 0.00 44 1014.0
20260905201503 62 192 0.0 0.0 0.00 0.00 0.00 46 1014.1
20260905200103 61 172 0.0 0.0 0.00 0.00 0.00 48 1014.3
20260905194557 61 169 0.0 0.0 0.00 0.00 0.00 51 1014.5
20260905193054 60 166 0.0 0.0 0.00 0.00 0.00 54 1014.8
20260905191554 60 175 0.0 0.0 0.00 0.00 0.00 52 1014.7
20260905190058 59 207 0.0 0.0 0.00 0.00 0.00 54 1014.9
20260905184548 57 196 0.0 0.0 0.00 0.00 0.00 60 1015.1
20260905183049 55 190 0.0 0.0 0.00 0.00 0.00 62 1015.3
20260905181543 54 136 0.0 0.0 0.00 0.00 0.00 67 1015.5
20260905180036 53 127 0.0 0.0 0.00 0.00 0.00 72 1015.7
20260905174532 50 218 0.0 0.0 0.00 0.00 0.00 76 1015.7
20260905173027 48 213 0.0 0.0 0.00 0.00 0.00 84 1016.0
20260905171522 46 238 0.0 0.0 0.00 0.00 0.00 87 1016.2
20260905170020 44 114 0.0 0.0 0.00 0.00 0.00 92 1016.3
20260905164514 42 114 0.0 0.0 0.00 0.00 0.00 94 1016.5
20260905163010 41 114 0.0 0.0 0.00 0.00 0.00 95 1016.6
20260905161506 40 114 0.0 0.0 0.00 0.00 0.00 95 1016.8
20260905160015 39 113 0.0 0.0 0.00 0.00 0.00 95 1016.9
20260905154508 38 113 0.0 0.0 0.00 0.00 0.00 95 1016.8
20260905153003 37 113 0.0 0.0 0.00 0.00 0.00 95 1016.7
20260905151506 37 113 0.0 0.0 0.00 0.00 0.00 95 1016.6
20260905150002 36 113 0.0 0.0 0.00 0.00 0.00 95 1016.7
20260905144506 36 172 0.0 0.0 0.00 0.00 0.00 95 1016.8
20260905143100 36 172 0.0 0.0 0.00 0.00 0.00 94 1016.7
20260905141612 36 172 0.0 0.0 0.00 0.00 0.00 94 1016.5
20260905140106 36 172 0.0 0.0 0.00 0.00 0.00 94 1016.5
20260905134557 36 172 0.0 0.0 0.00 0.00 0.00 94 1016.2
20260905133055 37 172 0.0 0.0 0.00 0.00 0.00 94 1016.3
20260905131612 37 172 0.0 0.0 0.00 0.00 0.00 95 1016.2
20260905130053 37 173 0.0 0.0 0.00 0.00 0.00 95 1016.2
20260905124552 37 172 0.0 0.0 0.00 0.00 0.00 95 1016.3
20260905123050 37 172 0.0 0.0 0.00 0.00 0.00 94 1016.2
20260905121549 37 172 0.0 0.0 0.00 0.00 0.00 95 1016.4
20260905120048 38 173 0.0 0.0 0.00 0.00 0.00 94 1016.4
20260905114551 38 172 0.0 0.0 0.00 0.00 0.00 94 1016.2
20260905113046 38 172 0.0 0.0 0.00 0.00 0.00 94 1016.1
20260905111545 38 172 0.0 0.0 0.00 0.00 0.00 94 1016.2
20260905110044 38 172 0.0 0.0 0.00 0.00 0.00 94 1016.1
20260905104552 39 172 0.0 0.0 0.00 0.00 0.00 95 1016.2
20260905103048 39 172 0.0 0.0 0.00 0.00 0.00 95 1016.2
20260905101542 39 173 0.0 0.0 0.00 0.00 0.00 95 1016.1
20260905100041 39 172 0.0 0.0 0.00 0.00 0.00 95 1016.2
20260905094542 39 173 0.0 0.0 0.00 0.00 0.00 94 1016.1
20260905093041 39 172 0.0 0.0 0.00 0.00 0.00 94 1016.2
20260905091539 39 172 0.0 0.0 0.00 0.00 0.00 94 1016.2
20260905090050 39 172 0.0 0.0 0.00 0.00 0.00 94 1016.1
20260905084537 39 172 0.0 0.0 0.00 0.00 0.00 94 1015.8
20260905083043 39 172 0.0 0.0 0.00 0.00 0.00 94 1015.7
20260905081531 39 172 0.0 0.0 0.00 0.00 0.00 94 1015.7
20260905080040 39 172 0.0 0.0 0.00 0.00 0.00 94 1015.5
20260905074529 39 172 0.0 0.0 0.00 0.00 0.00 94 1015.4
20260905073027 39 172 0.0 0.0 0.00 0.00 0.00 94 1015.2
20260905071527 38 172 0.0 0.0 0.00 0.00 0.00 94 1015.2
20260905070024 38 172 0.0 0.0 0.00 0.00 0.00 94 1015.2
20260905064523 38 172 0.0 0.0 0.00 0.00 0.04 93 1015.0
20260905063022 38 172 0.0 0.0 0.00 0.00 0.04 92 1014.9
20260905061522 38 172 0.0 0.0 0.00 0.00 0.04 91 1014.8
20260905060025 39 172 0.0 0.0 0.00 0.00 0.04 90 1014.7
20260905054531 40 173 0.0 0.0 0.00 0.00 0.04 91 1014.8